GPS BIIA-10 (PRN 32) 1 20959C 90103A 12045.70204861 .00000000 00000-0 00000-0 0 450 2 20959 54.5749 243.6817 0120406 323.8554 312.0049 2.00555324 11 GPS BIIA-14 (PRN 26) 1 22014C 92039A 12045.70204861 .00000000 00000-0 00000-0 0 454 2 22014 56.4071 303.4618 0205872 66.9412 358.4040 2.00566092 16 GPS BIIA-15 (PRN 27) 1 22108C 92058A 12045.70204861 -.00000000 00000-0 00000-0 0 450 2 22108 56.2632 356.4042 0220888 295.2502 53.7058 2.00578957 18 GPS BIIA-21 (PRN 09) 1 22700C 93042A 12045.70204861 -.00000000 00000-0 00000-0 0 452 2 22700 56.4072 357.9288 0169878 91.8547 237.3629 2.00568259 12 GPS BIIA-22 (PRN 30) 1 22779C 93054A 12045.70204861 -.00000000 00000-0 00000-0 0 451 2 22779 54.9268 52.9032 0106299 89.0362 68.4688 2.00570264 16 GPS BIIA-23 (PRN 04) 1 22877C 93068A 12045.70204861 .00000000 00000-0 00000-0 0 454 2 22877 53.7345 178.6601 0098249 46.6538 179.3771 2.00548310 17 GPS BIIA-24 (PRN 06) 1 23027C 94016A 12045.70204861 -.00000000 00000-0 00000-0 0 457 2 23027 53.7117 115.4379 0071495 323.5477 121.7316 2.00559969 14 GPS BIIA-25 (PRN 03) 1 23833C 96019A 12045.70204861 -.00000000 00000-0 00000-0 0 457 2 23833 53.3137 111.0947 0147975 66.7579 9.8549 2.00559357 11 GPS BIIA-26 (PRN 10) 1 23953C 96041A 12045.70204861 .00000000 00000-0 00000-0 0 454 2 23953 54.2444 239.8526 0110300 41.5799 134.0614 2.00563426 10 GPS BIIR-2 (PRN 13) 1 24876C 97035A 12045.70204861 .00000000 00000-0 00000-0 0 453 2 24876 56.5467 303.7872 0045648 112.0308 51.6108 2.00558929 16 GPS BIIA-28 (PRN 08) 1 25030C 97067A 12045.70204861 -.00000000 00000-0 00000-0 0 452 2 25030 57.1664 4.0934 0121318 190.4439 239.8203 2.00560019 18 GPS BIIR-3 (PRN 11) 1 25933C 99055A 12045.70204861 -.00000000 00000-0 00000-0 0 453 2 25933 50.8831 163.3106 0125798 58.3815 285.0574 2.00561931 10 GPS BIIR-4 (PRN 20) 1 26360C 00025A 12045.70204861 .00000000 00000-0 00000-0 0 456 2 26360 53.3405 236.2198 0049132 72.3000 185.3297 2.00552164 12 GPS BIIR-5 (PRN 28) 1 26407C 00040A 12045.70204861 -.00000000 00000-0 00000-0 0 456 2 26407 56.0216 61.3707 0180907 254.5599 111.2032 2.00559734 15 GPS BIIR-6 (PRN 14) 1 26605C 00071A 12045.70204861 .00000000 00000-0 00000-0 0 459 2 26605 56.1393 302.2984 0063564 243.8415 51.6300 2.00577352 14 GPS BIIR-7 (PRN 18) 1 26690C 01004A 12045.70204861 .00000000 00000-0 00000-0 0 450 2 26690 53.3184 239.3019 0129952 234.7743 161.3561 2.00563502 11 GPS BIIR-8 (PRN 16) 1 27663C 03005A 12045.70204861 -.00000000 00000-0 00000-0 0 455 2 27663 56.1167 60.9770 0064569 353.3312 135.9629 2.00570782 18 GPS BIIR-9 (PRN 21) 1 27704C 03010A 12045.70204861 .00000000 00000-0 00000-0 0 456 2 27704 53.3722 179.0413 0187626 229.1355 222.0987 2.00565067 18 GPS BIIR-10 (PRN 22) 1 28129C 03058A 12045.70204861 .00000000 00000-0 00000-0 0 450 2 28129 53.1872 239.5078 0059399 246.5517 112.1030 2.00561169 18 GPS BIIR-11 (PRN 19) 1 28190C 04009A 12045.70204861 -.00000000 00000-0 00000-0 0 456 2 28190 54.9942 123.6867 0078787 6.2851 33.2667 2.00554466 17 GPS BIIR-12 (PRN 23) 1 28361C 04023A 12045.70204861 .00000000 00000-0 00000-0 0 451 2 28361 55.0843 299.4206 0075680 188.0818 4.1731 2.00563808 18 GPS BIIR-13 (PRN 02) 1 28474C 04045A 12045.70204861 .00000000 00000-0 00000-0 0 450 2 28474 53.7881 177.6841 0109799 197.0848 0.5117 2.00566019 19 GPS BIIRM-1 (PRN 17) 1 28874C 05038A 12045.70204861 -.00000000 00000-0 00000-0 0 458 2 28874 55.1426 120.6320 0073176 226.8639 77.0355 2.00567576 14 GPS BIIRM-2 (PRN 31) 1 29486C 06042A 12045.70204861 -.00000000 00000-0 00000-0 0 454 2 29486 56.1952 359.5869 0081856 307.1322 275.8323 2.00573608 12 GPS BIIRM-3 (PRN 12) 1 29601C 06052A 12045.70204861 -.00000000 00000-0 00000-0 0 454 2 29601 56.0662 59.9413 0038658 352.7721 271.4553 2.00576179 18 GPS BIIRM-4 (PRN 15) 1 32260C 07047A 12045.70204861 .00000000 00000-0 00000-0 0 453 2 32260 54.2433 297.4613 0043365 358.7045 34.8927 2.00552471 11 GPS BIIRM-5 (PRN 29) 1 32384C 07062A 12045.70204861 -.00000000 00000-0 00000-0 0 458 2 32384 55.1719 121.1200 0024531 289.7106 239.3994 2.00567968 18 GPS BIIRM-6 (PRN 07) 1 32711C 08012A 12045.70204861 -.00000000 00000-0 00000-0 0 458 2 32711 55.9036 359.4464 0051304 190.2524 272.4250 2.00569711 19 GPS BIIRM-8 (PRN 05) 1 35752C 09043A 12045.70204861 .00000000 00000-0 00000-0 0 450 2 35752 54.5367 238.5829 0026556 11.9186 115.8872 2.00571408 11 GPS BIIF-1 (PRN 25) 1 36585C 10022A 12045.70204861 -.00000000 00000-0 00000-0 0 455 2 36585 55.4268 58.0568 0010906 25.9067 207.9868 2.00553870 17 GPS BIIF-2 (PRN 01) 1 37753C 11036A 12045.70204861 .00000000 00000-0 00000-0 0 458 2 37753 55.0163 178.3433 0004210 32.6233 286.3405 2.00564769 10